Weather History for KAUW - January, 2013

Change the Weather History Date:

Tuesday, January 29, 2013

  Actual Average Record
Temperature  
Mean Temperature 35 °F 15 °F  
Max Temperature 38 °F 24 °F 46 °F (1906)
Min Temperature 31 °F 6 °F -30 °F (1951)
Degree Days  
Heating Degree Days 30 50  
Month to date heating degree days 1402 1467  
Since 1 July heating degree days 4395 4753  
Cooling Degree Days 0 0  
Month to date cooling degree days 0 0  
Year to date cooling degree days 0 0  
Moisture  
Dew Point 32 °F    
Average Humidity 91    
Maximum Humidity 100    
Minimum Humidity 82    
Precipitation  
Precipitation 0.50 in 0.03 in 0.60 in (1914)
Month to date precipitation 1.38 0.96  
Year to date precipitation 1.38 0.96  
Snow  
Snow T in 0.40 in 6.00 in (1975)
Month to date snowfall 10.7 12.7  
Since 1 July snowfall 34.8 34.9  
Snow Depth 7.00 in    
Sea Level Pressure  
Sea Level Pressure 29.58 in    
Wind  
Wind Speed 8 mph (East)    
Max Wind Speed 21 mph    
Max Gust Speed 26 mph    
Visibility 5 miles    
Events Fog , Rain    
T = Trace of Precipitation, MM = Missing Value Source: NWS Daily Summary

Daily Weather History Graph

Daily Weather History Graph

Search for Another Location

Airport or City:

Trip Planner

Search our weather history database for the weather conditions in past years. The results will help you decide how hot, cold, wet, or windy it might be!

Date:

Astronomy

Jan. 29, 2013 Rise Set
Actual Time 7:21 AM CST 5:02 PM CST
Civil Twilight 6:49 AM CST 5:34 PM CST
Nautical Twilight 6:14 AM CST 6:09 PM CST
Astronomical Twilight 5:39 AM CST 6:44 PM CST
Moon 8:09 PM CST (1/29) 8:09 AM CST (1/29)
Length of Visible Light 10h 44m
Length of Day
9h 41m
Waning Gibbous, 93% of the Moon is Illuminated
Jan 29
Waning Gibbous
Feb 3
Last Quarter
Feb 10
New
Feb 17
First Quarter
Feb 25
Full

Hourly Weather History & Observations

Time (CST) Temp. Windchill Dew Point Humidity Pressure Visibility Wind Dir Wind Speed Gust Speed Precip Events Conditions
12:54 AM 32.0 °F 23.6 °F 30.0 °F 92% 29.75 in 3.0 mi ESE 10.4 mph - 0.03 in Rain Light Freezing Rain
1:01 AM 32.0 °F 23.0 °F 30.2 °F 93% 29.69 in 2.5 mi ESE 11.5 mph - 0.02 in Rain Light Freezing Rain
1:15 AM 32.0 °F 23.6 °F 30.2 °F 93% 29.67 in 2.5 mi ESE 10.4 mph - 0.06 in Rain Light Freezing Rain
1:17 AM 32.0 °F 23.6 °F 30.2 °F 93% 29.67 in 3.0 mi ESE 10.4 mph - 0.06 in Rain Light Freezing Rain
1:26 AM 32.0 °F 20.8 °F 30.2 °F 93% 29.65 in 3.0 mi ESE 17.3 mph - 0.09 in Rain Light Freezing Rain
1:30 AM 32.0 °F 21.2 °F 30.2 °F 93% 29.64 in 3.0 mi ESE 16.1 mph - 0.09 in Rain Light Freezing Rain
1:54 AM 33.1 °F 23.0 °F 30.0 °F 89% 29.72 in 6.0 mi SE 15.0 mph 24.2 mph 0.09 in Rain Light Freezing Rain
2:02 AM 32.0 °F 21.2 °F 30.2 °F 93% 29.65 in 5.0 mi ESE 16.1 mph - 0.00 in Rain Light Freezing Rain
2:17 AM 32.0 °F 22.5 °F 30.2 °F 93% 29.65 in 5.0 mi SE 12.7 mph 20.7 mph 0.00 in   Overcast
2:54 AM 33.1 °F 24.4 °F 30.9 °F 92% 29.67 in 4.0 mi SE 11.5 mph - 0.03 in   Overcast
3:11 AM 33.8 °F 23.5 °F 30.2 °F 87% 29.60 in 5.0 mi ESE 16.1 mph - 0.01 in Rain Light Freezing Rain
3:54 AM 33.1 °F 24.4 °F 32.0 °F 96% 29.64 in 8.0 mi SE 11.5 mph - 0.02 in Rain Light Freezing Rain
4:01 AM 33.8 °F 26.4 °F 32.0 °F 93% 29.58 in 8.0 mi SE 9.2 mph - 0.00 in Rain Light Rain
4:34 AM 33.8 °F 28.6 °F 32.0 °F 93% 29.58 in 5.0 mi SE 5.8 mph - 0.02 in Rain Light Rain
4:54 AM 33.1 °F 26.1 °F 32.0 °F 96% 29.60 in 2.5 mi East 8.1 mph - 0.06 in Rain Rain
5:15 AM 33.8 °F 27.7 °F 32.0 °F 93% 29.55 in 3.0 mi ESE 6.9 mph - 0.03 in Rain Light Rain
5:45 AM 33.8 °F 27.0 °F 33.8 °F 100% 29.52 in 1.8 mi ESE 8.1 mph - 0.04 in Rain Light Rain
5:54 AM 33.1 °F 30.0 °F 33.1 °F 100% 29.58 in 1.2 mi SE 3.5 mph - 0.05 in Rain Light Rain
6:07 AM 33.8 °F 27.0 °F 33.8 °F 100% 29.52 in 0.8 mi ESE 8.1 mph - 0.01 in Rain Light Rain
6:38 AM 33.8 °F 27.7 °F 33.8 °F 100% 29.50 in 1.0 mi ESE 6.9 mph - 0.02 in Rain Light Rain
6:54 AM 33.1 °F 26.1 °F 33.1 °F 100% 29.56 in 2.0 mi SE 8.1 mph - 0.02 in   Overcast
7:27 AM 33.8 °F 27.0 °F 33.8 °F 100% 29.50 in 4.0 mi ESE 8.1 mph - 0.01 in Rain Light Rain
7:47 AM 33.8 °F 28.6 °F 33.8 °F 100% 29.49 in 2.0 mi ESE 5.8 mph - 0.01 in   Overcast
7:54 AM 34.0 °F 28.0 °F 33.1 °F 96% 29.54 in 2.0 mi ESE 6.9 mph - 0.01 in   Overcast
8:06 AM 33.8 °F 27.0 °F 33.8 °F 100% 29.49 in 1.2 mi ESE 8.1 mph - 0.00 in   Overcast
8:31 AM 33.8 °F 28.6 °F 33.8 °F 100% 29.49 in 0.8 mi SE 5.8 mph - 0.00 in   Overcast
8:54 AM 34.0 °F 31.0 °F 34.0 °F 100% 29.54 in 0.2 mi SE 3.5 mph - 0.00 in Fog Fog
9:54 AM 35.1 °F 32.2 °F 35.1 °F 100% 29.52 in 0.2 mi ESE 3.5 mph - N/A Fog Fog
10:54 AM 35.1 °F 31.0 °F 34.0 °F 96% 29.53 in 0.2 mi SSE 4.6 mph - N/A Fog Fog
11:54 AM 37.9 °F 30.9 °F 37.0 °F 97% 29.56 in 0.8 mi West 10.4 mph - N/A   Overcast
12:00 PM 37.4 °F 30.8 °F 37.4 °F 100% 29.51 in 2.0 mi West 9.2 mph - N/A   Overcast
12:07 PM 37.4 °F 31.4 °F 37.4 °F 100% 29.50 in 7.0 mi West 8.1 mph - N/A   Overcast
12:54 PM 37.0 °F 31.0 °F 36.0 °F 96% 29.54 in 6.0 mi WNW 8.1 mph - N/A   Overcast
1:54 PM 36.0 °F 28.5 °F 35.1 °F 97% 29.54 in 5.0 mi WNW 10.4 mph - N/A   Overcast
2:54 PM 36.0 °F 28.5 °F 34.0 °F 93% 29.56 in 8.0 mi WNW 10.4 mph - N/A   Overcast
3:01 PM 35.6 °F 28.0 °F 33.8 °F 93% 29.51 in 9.0 mi NW 10.4 mph - N/A   Overcast
3:54 PM 36.0 °F 29.6 °F 34.0 °F 93% 29.57 in 9.0 mi NW 8.1 mph - N/A   Overcast
4:54 PM 35.1 °F 30.1 °F 33.1 °F 92% 29.58 in 10.0 mi NNW 5.8 mph - N/A   Overcast
5:41 PM 35.6 °F 29.9 °F 32.0 °F 87% 29.52 in 10.0 mi North 6.9 mph - N/A   Overcast
5:54 PM 35.1 °F 28.6 °F 32.0 °F 89% 29.57 in 10.0 mi NNW 8.1 mph - N/A   Overcast
6:05 PM 35.6 °F 28.0 °F 30.2 °F 81% 29.53 in 10.0 mi North 10.4 mph - N/A   Overcast
6:20 PM 35.6 °F 28.0 °F 30.2 °F 81% 29.54 in 10.0 mi North 10.4 mph 17.3 mph N/A   Overcast
6:54 PM 34.0 °F 28.0 °F 30.0 °F 85% 29.58 in 10.0 mi North 6.9 mph - N/A   Overcast
7:54 PM 34.0 °F 26.6 °F 30.0 °F 85% 29.58 in 10.0 mi North 9.2 mph - N/A   Overcast
8:54 PM 34.0 °F 29.8 °F 30.0 °F 85% 29.59 in 10.0 mi North 4.6 mph - N/A   Overcast
9:54 PM 33.1 °F 27.7 °F 28.9 °F 85% 29.57 in 10.0 mi North 5.8 mph - N/A   Overcast
10:54 PM 33.1 °F 26.9 °F 28.0 °F 82% 29.59 in 10.0 mi North 6.9 mph 18.4 mph N/A   Overcast
11:54 PM 33.1 °F 26.1 °F 28.0 °F 82% 29.60 in 10.0 mi NNW 8.1 mph - N/A   Overcast